Погода в Малом Восном

Россия / Вологодская область     58°41′11″N   36°11′57″E
темп.,
°C
ветер,
м/с
пор.,
м/с
влажн.,
%
обл.,
%
осадки,
мм/ч
давл.,
гПа
погр.,
м
17 мая, пн
пн1700:00+14зюз228296 0.0 101238
03:00+11зюз22940 0.0 101427
06:00+13ююз22875 0.0 101480
09:00+18юв226498 0.0 1015514
12:00+22юв3452100 0.0 10151578
15:00+23юв454695 0.0 10141769
18:00+21вюв586352 0.0 1013806
21:00+16в412785 0.0 1012283
18 мая, вт
вт1800:00+16вюв5148594 0.1 1011397
03:00+14вюв412955 0.1 1010282
06:00+16вюв412880 0.0 1010329
09:00+22юв614575 0.0 1010695
12:00+26юв71446100 0.0 10091277
15:00+27юв713435 0.0 10092114
18:00+25юв712535 0.0 10081039
21:00+20вюв514655 0.0 1009502
19 мая, ср
ср1900:00+18юв514705 0.0 1008463
03:00+17юв413785 0.0 1009367
06:00+17юв513815 0.0 1008436
09:00+22юв610600 0.0 1008670
12:00+25ююв684984 0.0 10081484
15:00+26ююв6154975 0.0 10082123
18:00+25юв715535 0.0 10062220
21:00+17зюз23905 3.0 100853
20 мая, чт
чт2000:00+15в2290100 1.7 100814
03:00+15ю2698100 7.4 1008166
06:00+16юв3886100 0.3 1008174
09:00+19вюв477792 0.3 1008439
12:00+24вюв586115 0.0 10061424
15:00+25ююв695299 1.1 10052963
18:00+19вюв4118064 1.4 1004616
21:00+17юв51191100 2.9 1004504
21 мая, пт
пт2100:00+14вюв3897100 0.1 1003249
03:00+15юв3894100 0.1 1002356
06:00+14юв3893100 0.1 1002441
09:00+16юв61081100 0.9 10011071
12:00+15ю7107095 0.6 10011345
15:00+12ююв5981100 0.8 10021141
18:00+11ююв4782100 0.0 1002953
21:00+10ююв4889100 0.1 1001666